Regional Weather Roundup
Issued by NWS

Home | Current Version | Previous Version | Graphics & Text | Print | Product List | Glossary On
Versions: 1 2 3 4 5 6 7 8 9 10 11 12 13 14 15 16 17 18 19 20 21 22 23 24 25 26 27 28 29 30 31 32 33 34 35 36 37 38 39 40 41 42 43 44 45 46 47 48 49 50
000
ASUS43 KMPX 181901
RWRMN
WEATHER ROUNDUP FOR MINNESOTA
NATIONAL WEATHER SERVICE TWIN CITIES/CHANHASSEN MN
100 PM CST SAT FEB 18 2017


NOTE: "FAIR" INDICATES FEW OR NO CLOUDS BELOW 12,000 FEET WITH NO
SIGNIFICANT WEATHER AND/OR OBSTRUCTIONS TO VISIBILITY. N/A MEANS
CURRENT SKY AND/OR WEATHER CONDITIONS ARE NOT AVAILABLE.

MNZ060>063-068>070-182000-
   Twin Cities Metro

CITY           SKY/WX    TMP DP  RH WIND       PRES   REMARKS
TWIN CITIES    PTSUNNY   55  33  43 VRB3      29.78S
ST PAUL        PTSUNNY   55  35  47 CALM      29.77F
CRYSTAL        PTSUNNY   54  33  45 CALM      29.76F
BLAINE         PTSUNNY   55  36  47 W3        29.76F
LAKEVILLE      MOSUNNY   52  36  54 S3        29.78S
EDEN PRAIRIE   CLOUDY    54  35  48 SW6       29.77S
SOUTH ST PAUL  MOSUNNY   54  35  47 W5        29.77F
LAKE ELMO      FAIR      52  36  54 CALM      29.78S
$$
MNZ001>005-007-008-013>017-022>024-027-028-182000-
   Northwest Minnesota

CITY           SKY/WX    TMP DP  RH WIND       PRES   REMARKS
BEMIDJI        SUNNY     45  32  60 W15       29.70S
HALLOCK        SUNNY     37  34  87 W7        29.70S
ROSEAU         SUNNY     41  34  75 W13G18    29.66R
WARROAD        SUNNY     43  34  70 SW13      29.64R
THIEF RVR FALL SUNNY     39  32  76 W8        29.73R
CROOKSTON      MOSUNNY   39  36  87 SW3       29.74S
DETROIT LAKES  PTSUNNY   41  34  75 S5        29.75F
MOORHEAD       CLOUDY    41  37  87 SW6       29.76F
PARK RAPIDS    MOSUNNY   42  31  64 SW10      29.73R
MAHNOMEN       FAIR      38  35  86 SW9       29.74S
$$
MNZ006-009>011-018-025>026-182000-
   North Central Minnesota

CITY           SKY/WX    TMP DP  RH WIND       PRES   REMARKS
BAUDETTE       SUNNY     44  32  62 W7        29.62R
FLAG ISLAND    SUNNY     46  30  53 W15G21    29.59S
INTL FALLS     SUNNY     47  32  56 W12G21    29.61R
WASKISH        SUNNY     45  34  65 SW16      29.67R
BIG FORK       SUNNY     54  34  47 W10       29.65R
LONGVILLE      SUNNY     50  30  46 SW8       29.70S
GRAND RAPIDS   SUNNY     50  32  50 W12       29.70R
CRANE LAKE     SUNNY     48  30  49 W9        29.62S
ORR            SUNNY     48  28  46 W5        29.59F
COOK           SUNNY     48  34  57 W10G16    29.62F
WALKER         FAIR      51  31  45 W13G20    29.69F
$$
MNZ012-019>021-037-182000-
   Northeast Minnesota

CITY           SKY/WX    TMP DP  RH WIND       PRES   REMARKS
DULUTH         SUNNY     48  32  53 W17G24    29.66R
ELY            SUNNY     46  30  53 W13G18    29.60F
HIBBING        SUNNY     49  31  49 W9G20     29.65S
EVELETH        SUNNY     46  29  50 W12       29.65S
DULUTH HARBOR  SUNNY     50  34  53 W15       29.66F
TWO HARBORS    SUNNY     55  37  50 W13G18    29.61S
GRAND MARAIS     N/A     55  33  43 NW10G26   29.55S
G MARAIS ARPRT SUNNY     46  28  49 W15       29.55S
$$
MNZ029>031-032-039>041-046>048-054>057-064-182000-
   West Central Minnesota

CITY           SKY/WX    TMP DP  RH WIND       PRES   REMARKS
FERGUS FALLS   MOSUNNY   46  37  71 NW5       29.79F
WHEATON        CLOUDY    54  37  54 SW5       29.78F
MORRIS         MOSUNNY   54  41  62 SW5       29.77S
ALEXANDRIA     SUNNY     48  37  65 W6        29.77F
ELBOW LAKE     FAIR      46  39  77 W6        29.77F
WADENA         MOSUNNY   45  34  65 W8        29.74F
GLENWOOD       SUNNY     46  39  76 W6        29.77F
APPLETON       MOSUNNY   54  37  54 W6        29.78S
BENSON         MOSUNNY   55  34  44 NW6       29.80S
ORTONVILLE     PTSUNNY   54  37  54 CALM      29.78S
WILLMAR        FAIR      48  43  81 CALM      29.80S
$$
MNZ033>034-036-042>043-049>051-058-059-182000-
   Central Minnesota

CITY           SKY/WX    TMP DP  RH WIND       PRES   REMARKS
ST CLOUD       CLOUDY    54  37  52 W7        29.75F
SAUK CENTRE    FAIR      48  40  73 W6        29.77F
PAYNESVILLE    SUNNY     50  39  66 W6        29.78S
AITKIN         SUNNY     54  28  37 SW8       29.71S
PINE RIVER     SUNNY     48  34  57 W7        29.76S
BRAINERD       SUNNY     50  32  50 W9        29.74S
STAPLES        SUNNY     45  36  70 NW5       29.75S
LONG PRAIRIE   FAIR      46  36  66 SW8       29.76F
LITTLE FALLS   MOSUNNY   52  34  50 W6        29.75S
LITCHFIELD     SUNNY     52  39  62 W3        29.79S
BUFFALO        MOSUNNY   51  36  56 SW5       29.79S
MAPLE LAKE     MOSUNNY   51  40  64 SW3       29.78S
HUTCHINSON     SUNNY     52  40  65 W3        29.80S
$$
MNZ037-044-045-052-053-182000-
   East Central Minnesota

CITY           SKY/WX    TMP DP  RH WIND       PRES   REMARKS
PRINCETON      MOSUNNY   55  36  47 W6        29.76S
MORA           SUNNY     52  32  46 W9        29.75S
CAMBRIDGE      MOSUNNY   54  37  54 W6        29.74S
RUSH CITY      MOSUNNY   52  36  54 W6        29.75S
MOOSE LAKE     SUNNY     54  30  40 W7        29.69S
HINCKLEY       FAIR      54  34  47 W8        29.73S
CLOQUET        SUNNY     52  28  40 W9        29.68R
MCGREGOR       SUNNY     48  32  53 W6        29.71F
$$
MNZ071>073-080-081-089-090-097-098-182000-
   Southwest Minnesota

CITY           SKY/WX    TMP DP  RH WIND       PRES   REMARKS
MONTEVIDEO     SUNNY     55  48  76 NW3       29.81S
GRANITE FALLS  SUNNY     55  42  60 CALM      29.81F
CANBY          SUNNY     59  38  45 CALM      29.79F
MARSHALL       SUNNY     55  39  54 CALM      29.80F
REDWOOD FALLS  SUNNY     54  36  50 W3        29.79F
OLIVIA         SUNNY     54  43  66 W3        29.79S
PIPESTONE      SUNNY     54  37  54 W3        29.80R
WINDOM         SUNNY     55  39  54 CALM      29.80S
WORTHINGTON    SUNNY     53  39  59 CALM      29.81F
JACKSON        SUNNY     52  37  58 N3        29.80F
TRACY          SUNNY     55  41  58 CALM      29.79F
SLAYTON        SUNNY     56  39  52 SE3       29.80F
$$
MNZ065>067-074>077-082>085-091>093-182000-
   South Central Minnesota

CITY           SKY/WX    TMP DP  RH WIND       PRES   REMARKS
MANKATO          N/A     51  39  63 VRB3      29.80F
NEW ULM        SUNNY     52  37  58 CALM      29.79F
ST JAMES       SUNNY     54  39  58 CALM      29.81F
FAIRMONT       SUNNY     51  40  65 N5        29.81F
GLENCOE        MOSUNNY   52  43  71 W3        29.78S
FARIBAULT      MOSUNNY   52  39  62 W6        29.80F
OWATONNA       SUNNY     52  39  62 CALM      29.79F
WASECA         SUNNY     50  39  66 W3        29.81S
ALBERT LEA     SUNNY     52  41  66 NW3       29.79S
$$
MNZ078>079-086>088-094>096-182000-
   Southeast Minnesota

CITY           SKY/WX    TMP DP  RH WIND       PRES   REMARKS
ROCHESTER      SUNNY     51  41  68 NW7       29.79S
RED WING       PTSUNNY   52  34  50 W5        29.77F
STANTON        MOSUNNY   52  37  56 CALM      29.78S
DODGE CENTER   SUNNY     52  39  62 CALM      29.78F
WINONA         SUNNY     54  36  50 N5        29.78S
AUSTIN         SUNNY     52  39  62 N5        29.78S
PRESTON        SUNNY     50  38  64 CALM      29.78S
$$
ABBREVIATIONS USED IN REMARKS
   TC - TEMPERATURES IN CELSIUS
  WCI - WIND CHILL INDEX
   HX - HEAT INDEX
  VSB - VISIBILITY
$$




USA.gov is the U.S. government's official web portal to all federal, state and local government web resources and services.